Regional Weather Roundup
Issued by NWS

Home | Current Version | Previous Version | Graphics & Text | Print | Product List | Glossary On
Versions: 1 2 3 4 5 6 7 8 9 10 11 12 13 14 15 16 17 18 19 20 21 22 23 24 25 26 27 28 29 30 31 32 33 34 35 36 37 38 39 40 41 42 43 44 45 46 47 48 49 50
000
ASUS43 KIND 031309
RWRIN

WEATHER ROUNDUP FOR INDIANA
NATIONAL WEATHER SERVICE INDIANAPOLIS IN
900 AM EDT WED JUN 03 2015

NOTE: "FAIR" INDICATES FEW OR NO CLOUDS BELOW 12,000 FEET WITH NO
SIGNIFICANT WEATHER AND/OR OBSTRUCTIONS TO VISIBILITY.

* - STATION DOES NOT REPORT WEATHER SUCH AS PRECIPITATION OR FOG.

+ - STATION NOT QUALITY CONTROLLED BY THE NATIONAL WEATHER SERVICE.
    USE DATA WITH CAUTION...ESPECIALLY DEWPOINT AND RELATIVE
    HUMIDITY OBSERVATIONS.

INZ001>003-010>013-019-020-031400-
NORTHWEST INDIANA

CITY           SKY/WX    TMP DP  RH WIND       PRES   REMARKS
GARY /AIRPORT/ MOSUNNY   61  50  67 S7        30.11R
KNOX *+        SUNNY     57  50  77 CALM      30.10S
LA PORTE +     SUNNY     58  50  73 CALM      30.12R
MICHIGAN CITY+ MOSUNNY   59  50  72 S5        30.11S
MONTICELLO +   SUNNY     57  53  85 CALM      30.11R
RENSSELAER +   SUNNY     59  54  82 CALM      30.11S
VALPARAISO     MOSUNNY   58  49  72 SE3       30.11S

$$

LMZ046-743>745-031400-
SOUTHERN LAKE MICHIGAN

STATION/POSITION TIME  TEMP    WIND        PRES    WAVE
                       AIR SEA DIR/SP/G            HT
                 (UTC) (F)     (DEG/KT/KT) (MB)    (FT)
BURNS HARBOR     1300          170/  4/  9 1019.6S
MICHIGAN CITY    1300   58     130/  9/ 12   N/A
5NW MICH CITY    1300   57 56  180/  6/  8   N/A     1

$$

INZ004-005-014>016-021>024-031400-
NORTH CENTRAL INDIANA

CITY           SKY/WX    TMP DP  RH WIND       PRES   REMARKS
ELKHART        SUNNY     57  48  72 CALM      30.12S
GOSHEN         SUNNY     58  51  78 E5        30.12R
LOGANSPORT +   SUNNY     57  50  77 E3        30.12R
PERU/GRISSOM   SUNNY     58  52  78 SE3       30.10R
ROCHESTER +    SUNNY     61  52  72 CALM      30.11S
SOUTH BEND     SUNNY     57  48  72 VRB3      30.12S
WARSAW +         N/A    N/A N/A N/A MISG        N/A

$$

INZ006>009-017-018-025>027-031400-
NORTHEAST INDIANA

CITY           SKY/WX    TMP DP  RH WIND       PRES   REMARKS
ANGOLA *+      SUNNY     57  52  82 SE5       30.13R
AUBURN +       CLOUDY    55  50  82 CALM      30.13S
FORT WAYNE     CLOUDY    56  52  86 E5        30.13R
HUNTINGTON +   SUNNY     57  53  84 E3        30.12R

$$

INZ028-029-035-036-043>045-051>053-031400-
WEST CENTRAL INDIANA

CITY           SKY/WX    TMP DP  RH WIND       PRES   REMARKS
CRAWFORDSVL +  SUNNY     55  50  82 CALM      30.11R
GREENCASTLE +  MOSUNNY   55  50  82 SE5       30.11R HAZE
LAFAYETTE      SUNNY     58  54  86 CALM      30.11R FOG
TERRE HAUTE    SUNNY     59  54  83 SE5       30.10R

$$

INZ030>032-037>040-046>048-054>057-064-065-031400-
CENTRAL INDIANA

CITY           SKY/WX    TMP DP  RH WIND       PRES   REMARKS
ANDERSON       SUNNY     59  54  82 CALM      30.12
CP ATTERBURY + CLOUDY    54  52  94 CALM      30.12R FOG
FISHERS *+     CLOUDY    55  55 100 CALM      30.11R
FRANKFORT +    SUNNY     60  60 100 CALM      30.12R
GREENWOOD *+   CLOUDY    55  52  88 CALM      30.11R
INDIANAPOLIS   CLOUDY    58  52  80 CALM      30.09R
-EAGLE CREEK   CLOUDY    58  53  84 CALM      30.10S
KOKOMO *+      SUNNY     57  52  82 CALM      30.11R
MARION +       SUNNY     56  51  82 SE7       30.12R
MT COMFORT *+  CLOUDY    55 N/A N/A CALM      30.11R
SHELBYVILLE    CLOUDY    58  54  86 CALM      30.10R FOG
ZIONSVILLE +   CLOUDY    58  54  86 CALM      30.11S FOG

$$

INZ033-034-041-042-049-050-058-059-031400-
EAST CENTRAL INDIANA

CITY           SKY/WX    TMP DP  RH WIND       PRES   REMARKS
MUNCIE         SUNNY     60  55  83 SE5       30.11R

$$

INZ060-061-067>069-081>083-085>088-031400-
SOUTHWEST INDIANA

CITY           SKY/WX    TMP DP  RH WIND       PRES   REMARKS
EVANSVILLE     CLOUDY    60  54  80 CALM      30.09R HAZE
HUNTINGBURG *+ PTSUNNY   57  54  88 N5        30.09S
WASHINGTON +   CLOUDY    58  53  83 CALM      30.09R HAZE

$$

INZ062-063-066-070>080-084-089>092-031400-
SOUTH CENTRAL AND SOUTHEAST INDIANA

CITY           SKY/WX    TMP DP  RH WIND       PRES   REMARKS
BLOOMINGTON    CLOUDY    56  53  90 CALM      30.10R FOG
MADISON *+     CLOUDY    59  54  82 CALM      30.10S
NORTH VERNON + CLOUDY    57  57 100 CALM      30.10R FOG
SEYMOUR +      CLOUDY    59  54  82 E3        30.09R HAZE

$$



USA.gov is the U.S. government's official web portal to all federal, state and local government web resources and services.